Погода в Заречном

Россия / Республика Татарстан     54°30′01″N   50°22′59″E
темп.,
°C
ветер,
м/с
пор.,
м/с
влажн.,
%
обл.,
%
осадки,
мм/ч
давл.,
гПа
погр.,
м
28 сентября, вт
вт2800:00+4всв61083100 0.1 1019883
03:00+4св6973100 0.1 10201071
06:00+2св613815 0.0 1022467
09:00+5св7106711 0.0 1023841
12:00+8св795023 0.0 10241366
15:00+9св684455 0.0 10251651
18:00+6ссв4105564 0.0 1026371
21:00+4ссв41164100 0.0 1027298
29 сентября, ср
ср2900:00+4ссв397193 0.0 1028232
03:00+3с377830 0.0 1028170
06:00+1ссв368314 0.0 1029130
09:00+6св47562 0.0 1029835
12:00+9ссв454459 0.0 10291637
15:00+9ссв454470 0.0 10281671
18:00+5с336214 0.0 102931
21:00+4с2267100 0.0 102918
30 сентября, чт
чт3000:00+3с11696 0.0 102910
03:00+2с127435 0.0 103010
06:00+2с227757 0.0 103012
09:00+7с23595 0.0 1030458
12:00+10ссз335188 0.1 10301571
15:00+9сз3459100 0.2 1029905
18:00+8зсз3771100 0.1 1029222
21:00+8зсз3781100 0.1 1029323
1 октября, пт
пт100:00+8зсз3689100 0.0 1029314
03:00+7з3689100 0.0 1029280
06:00+7з2688100 0.0 1029218
09:00+10зсз3580100 0.0 1030359
12:00+13зсз236456 0.0 1030874
15:00+14зсз3457100 0.0 10291212
18:00+12сз347085 0.0 1030113
21:00+9сз238133 0.0 103048
2 октября, сб
сб200:00+8сз22897 0.0 103132
03:00+7сз23915 0.0 103133
06:00+6сз229223 0.0 103122
09:00+11ссз237160 0.0 1032380
12:00+14ссз335633 0.0 10321182
15:00+14ссз335316 0.0 10311206
18:00+10с22715 0.0 103218
21:00+8с11755 0.0 103311